www.pogodaiklimat.ru

Погода и климат >> Архив погоды >> Португалия >> Понта-Делгада


ПОГОДА в Понта-Делгаде

  • Прогноз погоды в Понта-Делгаде
  • Монитор погоды в Понта-Делгаде

АРХИВ ПОГОДЫ в Понта-Делгаде

Время (UTC), дата Ветер
(напр.,м/с)
 
Видим.   Явления Облачность Т
(С)
Тd
(С)
f
(%)
Тe
(С)
Тes
(С)
Комфортность P
(гПа)
Po
(гПа)
Тmin
(С)
Tmax
(С)
R
(мм)
R24
(мм)
S
(см)
15 13.05 ЮЗ 4 30 км 6/3 600 м
[Cu Sc Ci sp]
+18.7 +18 +26 1021.4 1012.3
18 13.05 ЮЗ 5-7
{9}
30 км 8/3 540 м
[Cu Sc Ac trans Ci sp]
+17.9 +18 +19 1020.8 1011.6 +19.4
21 13.05 ЮЗ 7 20 км 9/3 480 м
[Cu Sc Ac trans Ci sp]
+16.9 +14.5 86 +16 +16 1020.7 1011.5
00 14.05 ЮЗ 5-8
{8}
20 км 9/6 480 м
[Cu Sc Ac trans Ci sp]
+16.9 +15.2 90 +16 +16 1021.2 1012.1
03 14.05 ЮЗ 5-8
{9}
20 км 9/8 360 м
[Cu Sc Ac As]
+16.9 +15.9 94 +16 +16 1020.4 1011.2
06 14.05 СЗ 8
{14}
13 км слаб. ливневой дождь {морось} 9/9 120 м
[Cu Sc]
+14.6 +14.0 96 +12 +12 1020.5 1011.3 +14.5 0.4
09 14.05 СЗ 4-6
{7}
30 км {ливн. осадки} 9/3 540 м
[Cu Sc Ac trans Ci sp]
+16.5 +16 +17 1021.6 1012.4
12 14.05 З 6 30 км {ливн. осадки} 9/3 540 м
[Cu Sc Ac trans Ci sp]
+17.5 +17 +20 1022.7 1013.6 0.2
15 14.05 З 5 20 км 8/3 750 м
[Cu Sc Ci sp]
+18.6 +18 +24 1022.6 1013.4
18 14.05 З 7 20 км 9/8 660 м
[Cu Sc Ci sp]
+17.9 +15.1 84 +17 +17 1022.8 1013.7 +19.2 0.2
21 14.05 С 4 30 км 9/4 600 м
[Cu Sc Ci sp]
+15.8 +15.1 96 +15 +15 1024.3 1015.1
00 15.05 С 3
{5}
20 км 6/1 600 м
[Cu Sc Ci sp]
+14.9 +12.8 87 +14 +14 1024.8 1015.5
03 15.05 С 2 20 км 9/3 540 м
[Cu Sc Ac trans Ci sp]
+14.0 +14 +14 1023.4 1014.2
06 15.05 СЗ 3 25 км 8/1 540 м
[Cu Sc Ac trans Ci fib]
+15.0 +15 +15 1023.4 1014.1 +13.4
09 15.05 С 1 25 км 8/4 600 м
[Cu Sc Ac trans Ci sp]
+16.9 +16.1 95 +18 +20 1024.4 1015.2
12 15.05 Ю 2 20 км 8/5 750 м
[Cu Sc Ac trans Ci sp]
+18.5 +19 +25 1024.7 1015.6
15 15.05 нст 2 20 км 9/6 300 м
[St Ac trans]
+18.5 +17.8 96 1024.0 1014.9
18 15.05 ЮЗ 3 20 км {ливн. осадки} 10/9 240 м
[Cu Sc Ac trans]
+17.8 +15.4 86 +18 +18 1023.7 1014.5 +19.1 0.0
21 15.05 ЮЗ 4 15 км 9/9 180 м
[Cu Sc Ac trans]
+17.3 +16.8 97 +17 +17 1023.8 1014.6
00 16.05 ЮЗ 5
{8}
8000 м дымка 10/10 120 м
[Cu Sc]
+17.2 +16.7 97 +17 +17 1023.3 1014.2
03 16.05 СЗ 6
{10}
15 км в посл. час ливневой дождь 8/8 240 м
[Cu Sc]
+15.1 +14.9 99 +13 +13 1023.1 1013.9
06 16.05 СЗ 3 20 км {ливн. осадки} 5/5 360 м
[Cu Sc]
+14.9 +14.1 95 +14 +14 1022.7 1013.4 0.2
12 16.05 З 4
{6}
20 км {ливн. осадки} 8/6 240 м
[Cu Sc Ac trans]
+17.6 +16.0 90 +17 +21 1024.2 1015.0 0.1
15 16.05 С 6
{10}
25 км 8/5 180 м
[Cu Sc Ac trans]
+20.3 +19 +21 1024.1 1015.0
18 16.05 С 4
{7}
20 км 8/6 540 м
[Cu Sc Ac trans]
+19.2 +19 +20 1023.8 1014.7 +20.7 0.2
21 16.05 С 4
{6}
28 км 9/9 270 м
[Cu Sc]
+16.9 +17 +17 1024.8 1015.6
00 17.05 СВ 1 20 км 9/9 540 м
[Cu Sc]
+16.6 +18 +18 1025.7 1016.5
03 17.05 З 1 20 км 9/9 540 м
[Cu Sc]
+16.6 +18 +18 1025.3 1016.1
06 17.05 С 1 20 км 8/6 540 м
[Cu Sc Ac trans]
+15.3 +16 +16 1024.8 1015.5 +15.3
09 17.05 З 1 20 км 4/3 540 м
[Cu Sc Ac trans]
+17.9 +19 +23 1025.6 1016.4
12 17.05 З 2 25 км 4/3 540 м
[Cu Sc Ci fib]
+19.3 +19 +31 опасность
простуды
1026.3 1017.1
15 17.05 З 4
{6}
30 км 5/3 540 м
[Cu Sc Ci sp]
+19.8 +19 +27 1026.0 1016.9
18 17.05 З 3 30 км 8/3 600 м
[Cu Sc Ci sp]
+18.8 +19 +22 1025.1 1016.0 +20.7
21 17.05 С 3 30 км 8/4 300 м
[Cu Sc Ci sp]
+17.1 +17 +17 1025.1 1015.9
00 18.05 С 3
{5}
30 км 8/1 420 м
[Cu Sc Ci sp]
+16.1 +16 +16 1025.6 1016.4
03 18.05 СЗ 2 30 км 8/6 540 м
[Cu Sc]
+15.4 +16 +16 1025.0 1015.8
06 18.05 С 2 30 км 3/1 600 м
[Cu Sc Ci fib]
+12.9 +13 +13 1024.3 1015.0 +12.8
09 18.05 З 4
{6}
30 км 6/1 600 м
[Cu Sc Ci fib]
+17.1 +17 +19 1024.5 1015.3
12 18.05 З 6 30 км 9/8 540 м
[Cu Sc Ci fib]
+17.4 +17 +18 1024.9 1015.7
15 18.05 З 5
{10}
30 км 9/8 540 м
[Cu Sc Ci fib]
+19.0 +18 +20 1024.6 1015.4
18 18.05 З 4-6
{7}
30 км 8/8 540 м
[Cu Sc Ci fib]
+18.1 +18 +19 1024.3 1015.2 +19.6
21 18.05 З 4-6
{7}
20 км 9/9 210 м
[Cu Sc]
+16.4 +16 +16 1024.7 1015.5
00 19.05 З 1 20 км {ливн. осадки} 9/9 480 м
[Cu Sc]
+16.0 +17 +17 1025.1 1015.9 0.0
03 19.05 С 2 28 км 9/9 540 м
[Cu Sc]
+14.7 +14.7 100 +14 +14 1024.0 1014.7
06 19.05 С 4 30 км 6/6 480 м
[Cu Sc]
+15.1 +13.0 87 +14 +14 1023.8 1014.5 +14.0 0.0

 

Местоположение метеостанции Понта-Делгада (Португалия): широта 37.73 долгота -25.70 высота над уровнем моря 72 м.

В архиве по умолчанию представлена погода в Понта-Делгаде за последнюю неделю. Архивные данные за месяц целиком и за предыдущие месяцы, начиная с января 2011 года, Вы можете получить, выбрав интересующий диапазон дат из раскрывающегося списка и нажав кнопку "Ввод!".


*Определитесь, кто Вы:
робот инопланетянин человек

Внимание! Время в таблицах - всемирное. Для получения местного времени необходимо прибавить поправку, которая равна 0 ч.

Смотрите также архив погоды в соседних городах и на ближайших метеорологических станциях:

Погода в Санта-Марии (Португалия) (97 км)
Погода в Аэропорту Лажеша (Португалия) (168 км)
Погода в Ангра-ду-Эроижму (Португалия) (168 км)
Погода в Сан-Жоржи (Португалия) (239 км)
Погода на Острове Грасьоса (Португалия) (253 км)
Погода в Пико (Португалия) (256 км)
Погода в Орте (Португалия) (271 км)
Погода в Каштелу-Бранку (Португалия) (278 км)
Погода на Флошише (Португалия) (509 км)
Погода в Фуншале (Португалия) (980 км)

Пояснения к столбцам:

Ветер - указаны скорость ветра в м/с - средняя за 10 мин, порывы в срок и между сроками (в фигурных скобках) и направление, откуда дует ветер: С - северный, СВ - северо-восточный, В - восточный, ЮВ - юго-восточный, Ю - южный, ЮЗ - юго-западный, З - западный, СЗ - северо-западный.
Видимость - горизонтальная дальность видимости в метрах или километрах. При видимости от 1 до 10 км при отсутствии осадков обычно наблюдается дымка, при ухудшении видимости до 1 км и менее - туман. В сухую погоду видимость может ухудшаться дымом, пылью или мглою.
Явления - указаны атмосферные явления, наблюдавшиеся в срок или в последний час перед сроком; фигурными скобками обозначены явления, наблюдавшиеся между сроками (за 1-3 часа до срока); квадратными скобками обозначены град или гололедные отложения с указанием их диаметра в мм.
Облачность - указаны через наклонную черту общая и нижняя облачность в баллах и высота нижней границы облаков в метрах; квадратными скобками обозначены формы облаков: Ci - перистые, Cs - перисто-слоистые, Cc - перисто-кучевые, Ac - высококучевые, As - высокослоистые, Sc - слоисто-кучевые, Ns - слоисто-дождевые, Cu - кучевые, Cb - кучево-дождевые. Подробнее классификацию облаков см. в Атласе облаков (PDF).
T - Температура воздуха - температура, измеренная на высоте 2 м над землей.
Td - Температура точки росы - температура, при понижении до которой содержащийся в воздухе водяной пар достигнет насыщения.
f - Относительная влажность воздуха - влажноcть воздуха, измеренная на высоте 2 м над землей.
Te - Эффективная температура - температура, которую ощущает одетый по сезону человек в тени. Характеристика душности погоды. При расчете учитывается влияние влажности воздуха и скорости ветра на теплоощущения человека.
Tes - Эффективная температура на солнце - температура, которую ощущает человек, с поправкой на солнечный нагрев. Характеристика знойности погоды. Зависит от высоты солнца над горизонтом, облачности и скорости ветра. Ночью, в пасмурную погоду, а также при ветре 12 м/с и более поправка равна нулю.
P - Атмосферное давление - приведенное к уровню моря атмосферное давление.
Po - Атмосферное давление - измеренное на уровне метеостанции атмосферное давление.
Tmin - Минимальная температура - минимум температуры воздуха на высоте 2 м над землей.
Tmax - Максимальная температура - максимум температуры воздуха на высоте 2 м над землей.
R - Количество осадков - Количество выпавших осадков за период времени, мм. При наведении курсора мыши на число - период времени, за который выпало указанное количество осадков.
R24 - Количество осадков - Количество выпавших осадков за 24 часа, мм.
S - Снежный покров - Высота снежного покрова, см. При наведении курсора мыши на число - состояние снежного покрова и степень покрытия местности в баллах.